Location: Unspecified
(0.0000°N, 0.0000°E)
Time: 00:07:58
(UTC+00:00)

Vanguard 1 - All Passes

Search period start: 16 September 2019 00:00
Search period end: 26 September 2019 00:00
Orbit: 654 x 3829 km, 34.3° (Epoch: 15 September)

Date Brightness Start Highest point End Pass type
(mag) Time Alt. Az. Time Alt. Az. Time Alt. Az.
16 Sep - 00:43:58 10° WSW 01:05:27 69° NW 01:27:27 10° NE visible
16 Sep - 03:15:30 10° W 03:34:08 29° NNW 03:49:07 10° NNE visible
16 Sep - 06:02:03 10° NNW 06:04:23 10° NNW 06:06:33 10° N daylight
16 Sep - 10:50:44 10° NNW 10:56:22 32° NNE 11:00:31 10° E daylight
16 Sep - 13:12:56 10° W 13:16:31 22° SW 13:20:08 10° SSE daylight
16 Sep - 20:22:28 10° SSW 20:33:28 25° SE 20:49:03 10° E visible
16 Sep - 22:41:47 10° SW 22:59:36 70° SE 23:23:13 10° ENE visible
17 Sep - 01:06:03 10° WSW 01:27:21 57° NW 01:48:32 10° NE visible
17 Sep - 03:40:27 10° WNW 03:56:46 23° NNW 04:09:51 10° NNE visible
17 Sep - 08:51:31 10° N 08:55:01 13° NNE 08:57:54 10° NE daylight
17 Sep - 11:11:30 10° NW 11:17:34 58° NNE 11:22:01 10° ESE daylight
17 Sep - 13:36:02 10° SW 13:37:42 12° SSW 13:39:25 10° S daylight
17 Sep - 20:42:45 10° SSW 20:55:13 34° SE 21:13:36 10° E visible
17 Sep - 23:02:50 10° SW 23:21:13 84° SE 23:45:09 10° NE visible
18 Sep - 01:28:36 10° WSW 01:49:26 46° NW 02:09:30 10° NE visible
18 Sep - 04:06:09 10° WNW 04:19:45 19° NNW 04:30:41 10° NNE visible
18 Sep - 09:11:17 10° NNW 09:16:59 18° NNE 09:21:09 10° ENE daylight
18 Sep - 11:32:40 10° WNW 11:38:36 76° SW 11:43:03 10° SE daylight
18 Sep - 18:48:57 10° SSE 18:51:21 11° SSE 18:53:58 10° SE visible
18 Sep - 21:03:11 10° SSW 21:16:45 44° SE 21:37:17 10° ENE visible
18 Sep - 23:24:07 10° WSW 23:42:55 81° NW 00:06:46 10° NE visible
19 Sep - 01:51:46 10° W 02:11:45 37° NNW 02:30:25 10° NNE visible
19 Sep - 04:32:15 10° NW 04:43:01 16° NNW 04:51:48 10° NNE visible
19 Sep - 07:10:02 10° N 07:13:29 11° N 07:16:29 10° NNE daylight
19 Sep - 09:31:40 10° NNW 09:38:43 27° NNE 09:43:27 10° E daylight
19 Sep - 11:54:16 10° WNW 11:59:29 39° SW 12:03:40 10° SSE daylight
19 Sep - 19:06:48 10° S 19:13:24 16° SE 19:22:03 10° ESE visible
19 Sep - 21:23:46 10° SW 21:38:10 56° SE 22:00:18 10° ENE visible
19 Sep - 23:45:42 10° WSW 00:04:46 67° NW 00:28:08 10° NE visible
20 Sep - 02:15:37 10° W 02:34:23 30° NNW 02:51:23 10° NNE visible
20 Sep - 04:58:00 10° NW 05:06:28 14° N 05:13:28 10° NNE visible
20 Sep - 07:30:11 10° NNW 07:36:05 14° N 07:40:39 10° NE daylight
20 Sep - 09:52:24 10° NW 10:00:13 42° NNE 10:05:10 10° ESE daylight
20 Sep - 12:16:29 10° W 12:20:23 21° SW 12:23:48 10° SSE daylight
20 Sep - 19:26:22 10° S 19:35:08 22° SE 19:47:47 10° E visible
20 Sep - 21:44:32 10° SW 21:59:34 70° SE 22:22:46 10° ENE visible
21 Sep - 00:07:40 10° WSW 00:26:47 55° NW 00:49:21 10° NE visible
21 Sep - 02:40:12 10° WNW 02:57:21 25° NNW 03:12:27 10° NNE visible
21 Sep - 05:22:31 10° NNW 05:29:55 13° N 05:36:01 10° NNE visible
21 Sep - 07:50:39 10° NNW 07:58:23 19° NNE 08:03:50 10° ENE daylight
21 Sep - 10:13:28 10° NW 10:21:28 70° NE 10:26:27 10° ESE daylight
21 Sep - 12:40:19 10° SW 12:41:24 11° SW 12:42:28 10° SSW daylight
21 Sep - 19:46:24 10° SSW 19:56:35 31° SE 20:12:24 10° E visible
21 Sep - 22:05:29 10° SW 22:21:03 85° SE 22:44:48 10° NE visible
22 Sep - 00:30:04 10° W 00:49:03 45° NNW 01:10:30 10° NE visible
22 Sep - 03:05:26 10° WNW 03:20:42 20° NNW 03:33:46 10° NNE visible
22 Sep - 05:45:26 10° NNW 05:53:13 14° N 05:59:24 10° NNE daylight
22 Sep - 08:11:18 10° NNW 08:20:27 26° NNE 08:26:19 10° ENE daylight
22 Sep - 10:34:53 10° WNW 10:42:30 69° SW 10:47:21 10° SE daylight
22 Sep - 20:06:41 10° SSW 20:17:50 41° SE 20:36:10 10° ENE visible
22 Sep - 22:26:42 10° WSW 22:42:41 79° NW 23:06:31 10° NE visible
23 Sep - 00:53:01 10° W 01:11:35 37° NNW 01:31:37 10° NNE visible
23 Sep - 03:30:55 10° NW 03:44:19 18° NNW 03:55:32 10° NNE visible
23 Sep - 06:07:14 10° NNW 06:16:14 16° N 06:22:57 10° NE daylight
23 Sep - 08:32:09 10° NW 08:42:16 36° NNE 08:48:17 10° E daylight
23 Sep - 10:56:43 10° WNW 11:03:21 39° SW 11:07:53 10° SSE daylight
23 Sep - 18:12:04 10° SSE 18:15:52 12° SE 18:20:26 10° ESE visible
23 Sep - 20:27:09 10° SW 20:39:01 54° SE 20:59:13 10° ENE visible
23 Sep - 22:48:12 10° WSW 23:04:31 65° NW 23:28:00 10° NE visible
24 Sep - 01:16:36 10° W 01:34:27 30° NNW 01:52:50 10° NNE visible
24 Sep - 03:56:02 10° NW 04:08:04 16° N 04:17:56 10° NNE visible
24 Sep - 06:28:32 10° NNW 06:38:57 20° NNE 06:46:11 10° ENE daylight
24 Sep - 08:53:13 10° NW 09:03:49 53° NNE 09:09:48 10° ESE daylight
24 Sep - 11:19:11 10° W 11:24:09 22° SW 11:27:57 10° S daylight
24 Sep - 18:30:44 10° S 18:37:22 19° SE 18:46:41 10° E visible
24 Sep - 20:47:50 10° SW 21:00:14 70° SE 21:21:45 10° ENE visible
24 Sep - 23:10:03 10° WSW 23:26:36 53° NNW 23:49:20 10° NE visible
25 Sep - 01:40:50 10° WNW 01:57:42 25° NNW 02:14:15 10° NNE visible
25 Sep - 04:20:09 10° NNW 04:31:46 17° N 04:41:01 10° NE visible
25 Sep - 06:49:37 10° NNW 07:01:22 26° NNE 07:08:54 10° ENE daylight
25 Sep - 09:14:33 10° NW 09:25:06 80° NE 09:30:57 10° ESE daylight
25 Sep - 11:42:58 10° WSW 11:45:02 12° SW 11:46:54 10° SSW daylight
25 Sep - 18:50:27 10° SSW 18:58:34 27° SE 19:11:20 10° E visible
25 Sep - 21:08:44 10° SW 21:21:35 87° SE 21:43:50 10° NE visible
